TimeEST,TemperatureF,Dew PointF,Humidity,Sea Level PressureIn,VisibilityMPH,Wind Direction,Wind SpeedMPH,Gust SpeedMPH,PrecipitationIn,Events,Conditions,WindDirDegrees,DateUTC
12:53 AM,36.0,33.1,89,29.97,9.0,WNW,4.6,-,N/A,,Overcast,300,2013-03-01 05:53:00
1:14 AM,35.6,33.8,93,29.96,7.0,NW,4.6,-,N/A,,Overcast,310,2013-03-01 06:14:00
1:27 AM,35.6,33.8,93,29.96,7.0,NW,3.5,-,N/A,,Overcast,310,2013-03-01 06:27:00
1:38 AM,35.6,33.8,93,29.96,6.0,Calm,Calm,-,N/A,,Overcast,0,2013-03-01 06:38:00
1:53 AM,36.0,34.0,93,29.97,5.0,WNW,3.5,-,N/A,,Overcast,300,2013-03-01 06:53:00
2:14 AM,35.6,33.8,93,29.96,7.0,NW,4.6,-,N/A,,Overcast,320,2013-03-01 07:14:00
2:40 AM,35.6,33.8,93,29.96,7.0,NW,5.8,-,N/A,,Overcast,320,2013-03-01 07:40:00
2:53 AM,35.1,33.1,92,29.96,8.0,NNW,6.9,-,N/A,,Overcast,330,2013-03-01 07:53:00
3:53 AM,35.1,33.1,92,29.96,7.0,NNW,5.8,-,N/A,,Overcast,330,2013-03-01 08:53:00
4:53 AM,34.0,33.1,96,29.96,4.0,NW,3.5,-,N/A,,Overcast,310,2013-03-01 09:53:00
5:01 AM,33.8,33.8,100,29.96,5.0,NW,4.6,-,N/A,,Overcast,310,2013-03-01 10:01:00
5:53 AM,34.0,33.1,96,29.98,8.0,NNW,4.6,-,N/A,,Overcast,330,2013-03-01 10:53:00
6:34 AM,33.8,33.8,100,29.97,8.0,Calm,Calm,-,N/A,,Overcast,0,2013-03-01 11:34:00
6:53 AM,34.0,33.1,96,29.99,7.0,NW,3.5,-,N/A,,Overcast,310,2013-03-01 11:53:00
7:53 AM,35.1,33.1,92,29.99,3.0,NNW,4.6,-,0.00,Rain,Light Rain,340,2013-03-01 12:53:00
8:37 AM,35.6,33.8,93,29.99,4.0,North,3.5,-,0.00,Rain,Light Rain,10,2013-03-01 13:37:00
8:53 AM,35.6,33.8,93,30.00,5.0,North,3.5,-,N/A,Rain,Light Rain,360,2013-03-01 13:53:00
9:15 AM,35.6,33.8,93,30.00,5.0,NNE,3.5,-,N/A,,Overcast,20,2013-03-01 14:15:00
9:41 AM,35.6,33.8,93,30.00,4.0,Calm,Calm,-,0.00,Rain,Light Rain,0,2013-03-01 14:41:00
9:53 AM,36.0,33.1,89,30.01,5.0,Calm,Calm,-,0.00,Rain,Light Rain,0,2013-03-01 14:53:00
10:11 AM,35.6,33.8,93,30.00,7.0,ENE,4.6,-,0.00,,Overcast,70,2013-03-01 15:11:00
10:51 AM,35.6,33.8,93,30.01,8.0,Calm,Calm,-,0.00,,Overcast,0,2013-03-01 15:51:00
10:53 AM,36.0,33.1,89,30.02,7.0,Calm,Calm,-,0.00,Rain,Light Rain,0,2013-03-01 15:53:00
11:20 AM,35.6,33.8,93,30.01,9.0,Calm,Calm,-,0.00,,Overcast,0,2013-03-01 16:20:00
11:53 AM,35.6,33.8,93,30.01,9.0,Calm,Calm,-,N/A,,Overcast,0,2013-03-01 16:53:00
12:20 PM,35.6,33.8,93,30.01,6.0,Calm,Calm,-,0.00,Rain,Light Rain,0,2013-03-01 17:20:00
12:53 PM,35.1,33.1,92,30.02,3.0,Calm,Calm,-,0.00,Rain,Light Rain,0,2013-03-01 17:53:00
1:48 PM,35.6,33.8,93,30.00,3.0,NE,3.5,-,0.00,,Overcast,50,2013-03-01 18:48:00
1:51 PM,35.6,33.8,93,30.00,2.5,NE,3.5,-,0.00,Snow,Light Snow,50,2013-03-01 18:51:00
1:53 PM,33.8,33.8,100,30.00,2.5,ENE,3.5,-,N/A,Snow,Light Snow,70,2013-03-01 18:53:00
2:53 PM,36.0,33.1,89,30.00,5.0,Calm,Calm,-,0.00,,Overcast,0,2013-03-01 19:53:00
3:53 PM,37.0,32.0,82,30.00,5.0,Calm,Calm,-,N/A,,Overcast,0,2013-03-01 20:53:00
3:55 PM,37.4,33.8,87,29.99,10.0,Calm,Calm,-,N/A,,Overcast,0,2013-03-01 20:55:00
4:53 PM,36.0,30.0,79,30.01,10.0,North,5.8,-,0.00,,Overcast,10,2013-03-01 21:53:00
5:53 PM,36.0,30.9,82,30.02,10.0,NNE,5.8,-,N/A,,Overcast,30,2013-03-01 22:53:00
6:53 PM,35.1,28.0,76,30.04,10.0,NNE,11.5,-,N/A,,Overcast,30,2013-03-01 23:53:00
7:53 PM,33.1,28.9,85,30.06,10.0,NE,6.9,-,N/A,,Overcast,50,2013-03-02 00:53:00
8:53 PM,33.1,28.9,85,30.06,10.0,North,5.8,-,N/A,,Overcast,10,2013-03-02 01:53:00
9:53 PM,32.0,26.1,79,30.07,10.0,North,8.1,-,N/A,,Overcast,10,2013-03-02 02:53:00
10:44 PM,32.0,24.8,75,30.06,10.0,North,9.2,-,N/A,,Overcast,10,2013-03-02 03:44:00
10:53 PM,32.0,25.0,75,30.07,10.0,North,9.2,-,N/A,,Overcast,10,2013-03-02 03:53:00
11:19 PM,30.2,23.0,75,30.06,10.0,North,10.4,-,N/A,,Overcast,10,2013-03-02 04:19:00
11:53 PM,30.9,21.9,69,30.07,10.0,NNE,10.4,-,N/A,,Overcast,20,2013-03-02 04:53:00